Leeds/Bradford, United Kingdom

11:11 AM GMT on February 24, 2017 (GMT +0000)
Leeds And Bradford

Weather History for EGNM - April, 2013

Change the Weather History Date:

Tuesday, April 2, 2013

  Actual Average Record
Temperature  
Mean Temperature 34 °F -  
Max Temperature 40 °F 50 °F 60 °F (2005)
Min Temperature 28 °F 37 °F 28 °F (2013)
Degree Days  
Heating Degree Days 31    
Moisture  
Dew Point 28 °F    
Average Humidity 77    
Maximum Humidity 100    
Minimum Humidity 44    
Precipitation  
Precipitation 0.00 in - - ()
Sea Level Pressure  
Sea Level Pressure 30.06 in    
Wind  
Wind Speed 8 mph ()    
Max Wind Speed 13 mph    
Max Gust Speed -    
Visibility 6.2 miles    
Events      
Averages and records for this station are not official NWS values.
T = Trace of Precipitation, MM = Missing Value Source: Averaged Metar Reports

Daily Weather History Graph

Daily Weather History Graph

Search for Another Location

Airport or City:

Trip Planner

Search our weather history database for the weather conditions in past years. The results will help you decide how hot, cold, wet, or windy it might be!

Date:

Astronomy

Apr. 02, 2013 Rise Set
Actual Time 6:36 AM BST 7:44 PM BST
Civil Twilight 6:00 AM BST 8:20 PM BST
Nautical Twilight 5:17 AM BST 9:04 PM BST
Astronomical Twilight 4:29 AM BST 9:52 PM BST
Moon 2:14 AM BST (4/2) 10:33 AM BST (4/2)
Length of Visible Light 14h 19m
Length of Day
13h 07m
Waning Gibbous, 58% of the Moon is Illuminated
Apr 2
Waning Gibbous
Apr 3
Last Quarter
Apr 10
New
Apr 18
First Quarter
Apr 25
Full

Hourly Weather History & Observations

Time (BST) Temp. Windchill Dew Point Humidity Pressure Visibility Wind Dir Wind Speed Gust Speed Precip Events Conditions
12:20 AM 32.0 °F 24.2 °F 32.0 °F 100% 30.01 in 6.2 mi East 9.2 mph - N/A   Scattered Clouds
12:50 AM 29 °F - 23 °F 68%  in - ENE 9.2 mph - -  
12:50 AM 32.0 °F 25.6 °F 30.2 °F 93% 30.01 in 6.2 mi ENE 6.9 mph - N/A   Scattered Clouds
1:20 AM - - - N/A% 30.01 in 6.2 mi ENE 5.8 mph - N/A   Scattered Clouds
1:50 AM 30.2 °F 23.4 °F 30.2 °F 100% 30.01 in 6.2 mi ENE 6.9 mph - N/A   Scattered Clouds
2:20 AM 30.2 °F 22.6 °F 30.2 °F 100% 30.01 in 6.2 mi ENE 8.1 mph - N/A   Partly Cloudy
2:50 AM 30.2 °F 22.6 °F 30.2 °F 100% 30.01 in 6.2 mi ENE 8.1 mph - N/A   Scattered Clouds
3:50 AM 30 °F - 25 °F 73%  in - ENE 10.4 mph - -  
3:50 AM - - - N/A% 30.01 in 6.2 mi ENE 8.1 mph - N/A   Scattered Clouds
4:20 AM 30.2 °F 22.6 °F 30.2 °F 100% 30.01 in 6.2 mi NE 8.1 mph - N/A   Partly Cloudy
4:50 AM 32.0 °F 23.6 °F 32.0 °F 100% 30.01 in 6.2 mi ENE 10.4 mph - N/A   Mostly Cloudy
5:20 AM 32.0 °F 24.8 °F 32.0 °F 100% 30.01 in 6.2 mi ENE 8.1 mph - N/A   Scattered Clouds
5:50 AM - - - N/A% 30.01 in 6.2 mi ENE 8.1 mph - N/A   Scattered Clouds
6:20 AM 30.2 °F 24.3 °F 30.2 °F 100% 30.01 in 6.2 mi ENE 5.8 mph - N/A   Scattered Clouds
6:50 AM 31 °F - 29 °F 88%  in - ENE 10.4 mph - -  
6:50 AM 30.2 °F 23.4 °F 30.2 °F 100% 30.01 in 6.2 mi NE 6.9 mph - N/A   Scattered Clouds
7:20 AM - - - N/A% 30.01 in 6.2 mi NE 8.1 mph - N/A   Scattered Clouds
7:50 AM 32.0 °F 24.2 °F 32.0 °F 100% 30.04 in 6.2 mi NE 9.2 mph - N/A   Scattered Clouds
8:20 AM 33.8 °F 26.4 °F 33.8 °F 100% 30.04 in 6.2 mi ENE 9.2 mph - N/A   Scattered Clouds
8:50 AM 33.8 °F 27.0 °F 33.8 °F 100% 30.04 in 6.2 mi ENE 8.1 mph - N/A   Scattered Clouds
9:20 AM 35.6 °F 28.6 °F 33.8 °F 93% 30.06 in 6.2 mi ENE 9.2 mph - N/A   Scattered Clouds
9:50 AM 34 °F - 26 °F 63%  in - East 11.5 mph - -  
9:50 AM 35.6 °F 27.1 °F 28.4 °F 75% 30.06 in 6.2 mi East 12.7 mph - N/A   Scattered Clouds
10:20 AM 35.6 °F 27.1 °F 28.4 °F 75% 30.06 in 6.2 mi East 12.7 mph - N/A   Scattered Clouds
10:50 AM 37.4 °F 30.3 °F 28.4 °F 70% 30.06 in 6.2 mi ENE 10.4 mph - N/A   Scattered Clouds
11:20 AM 35.6 °F 28.0 °F 28.4 °F 75% 30.06 in 6.2 mi ENE 10.4 mph - N/A   Scattered Clouds
11:50 AM 37.4 °F 29.3 °F 28.4 °F 70% 30.06 in 6.2 mi East 12.7 mph - N/A   Scattered Clouds
12:20 PM 39.2 °F 31.6 °F 30.2 °F 70% 30.06 in 6.2 mi ENE 12.7 mph - N/A   Scattered Clouds
12:50 PM 36 °F - 27 °F 59%  in - NE 12.7 mph - -  
12:50 PM 39.2 °F 32.0 °F 28.4 °F 65% 30.06 in 6.2 mi East 11.5 mph - N/A   Scattered Clouds
1:20 PM 37.4 °F 29.8 °F 28.4 °F 70% 30.06 in 6.2 mi ENE 11.5 mph - N/A   Scattered Clouds
1:50 PM 39.2 °F 31.6 °F 28.4 °F 65% 30.06 in 6.2 mi East 12.7 mph - N/A   Mostly Cloudy
2:20 PM 41.0 °F 34.3 °F 26.6 °F 57% 30.06 in 6.2 mi ENE 11.5 mph - N/A   Mostly Cloudy
2:50 PM 41.0 °F 33.9 °F 26.6 °F 57% 30.06 in 6.2 mi ENE 12.7 mph - N/A   Mostly Cloudy
3:20 PM 42.8 °F 36.2 °F 26.6 °F 53% 30.06 in 6.2 mi East 12.7 mph - N/A   Mostly Cloudy
3:50 PM 38 °F - 24 °F 44%  in - ENE 10.4 mph - -  
3:50 PM 42.8 °F 38.0 °F 26.6 °F 53% 30.06 in 6.2 mi ENE 8.1 mph - N/A   Scattered Clouds
4:20 PM 41.0 °F 35.2 °F 24.8 °F 53% 30.06 in 6.2 mi NE 9.2 mph - N/A   Scattered Clouds
4:50 PM 41.0 °F 34.7 °F 26.6 °F 57% 30.06 in 6.2 mi NE 10.4 mph - N/A   Scattered Clouds
5:20 PM 41.0 °F 35.2 °F 26.6 °F 57% 30.06 in 6.2 mi ENE 9.2 mph - N/A   Scattered Clouds
5:50 PM 39.2 °F 34.2 °F 24.8 °F 56% 30.09 in 6.2 mi NE 6.9 mph - N/A   Scattered Clouds
6:20 PM 39.2 °F 33.6 °F 26.6 °F 61% 30.09 in 6.2 mi NE 8.1 mph - N/A   Scattered Clouds
6:50 PM 37 °F - 25 °F 49%  in - East 10.4 mph - -  
6:50 PM 37.4 °F 32.1 °F 26.6 °F 65% 30.09 in 6.2 mi ENE 6.9 mph - N/A   Scattered Clouds
7:20 PM 37.4 °F 30.3 °F 28.4 °F 70% 30.09 in 6.2 mi ENE 10.4 mph - N/A   Partly Cloudy
7:50 PM 35.6 °F 28.0 °F 28.4 °F 75% 30.12 in 6.2 mi ENE 10.4 mph - N/A   Partly Cloudy
8:20 PM 33.8 °F 27.0 °F 28.4 °F 81% 30.12 in 6.2 mi ENE 8.1 mph - N/A   Partly Cloudy
8:50 PM 32.0 °F 24.8 °F 30.2 °F 93% 30.12 in 6.2 mi ENE 8.1 mph - N/A   Partly Cloudy
9:20 PM 32.0 °F 24.8 °F 26.6 °F 80% 30.15 in - ENE 8.1 mph - N/A   Clear
9:50 PM 31 °F - 24 °F 66%  in - ENE 9.2 mph - -  
9:50 PM 32.0 °F 25.6 °F 26.6 °F 80% 30.15 in - ENE 6.9 mph - N/A   Clear
10:20 PM 30.2 °F 24.3 °F 26.6 °F 86% 30.15 in 6.2 mi NE 5.8 mph - N/A   Partly Cloudy
10:50 PM 30.2 °F 24.3 °F 26.6 °F 86% 30.15 in 6.2 mi NE 5.8 mph - N/A   Partly Cloudy
11:20 PM 30.2 °F 23.4 °F 26.6 °F 86% 30.15 in 6.2 mi NE 6.9 mph - N/A   Partly Cloudy
11:50 PM 30.2 °F 23.4 °F 26.6 °F 86% 30.15 in - NE 6.9 mph - N/A   Clear